| time (UTC) | temp C | wind direction | speed KPH | gust KPH | rain 1hr cm | rain 24hr cm | rain mn cm | humidity % | barometer mb |
| 20260506073018 | 17 | 0.0 | 0.0 | 0.00 | 0.00 | 0.00 | 58 | 1005.4 | |
| 20260506043017 | 18 | 0.0 | 0.0 | 0.00 | 0.25 | 0.00 | 54 | 1006.5 | |
| 20260506040016 | 18 | 0.0 | 0.0 | 0.00 | 0.25 | 0.25 | 53 | 1006.8 | |
| 20260506033017 | 19 | 0.0 | 0.0 | 0.00 | 0.25 | 0.25 | 49 | 1006.6 | |
| 20260506030016 | 20 | 0.0 | 0.0 | 0.00 | 0.25 | 0.25 | 46 | 1006.6 | |
| 20260506023036 | 20 | 0.0 | 0.0 | 0.00 | 0.25 | 0.25 | 46 | 1006.6 | |
| 20260506020016 | 21 | 0.0 | 1.6 | 0.00 | 0.25 | 0.25 | 45 | 1006.6 | |
| 20260506013016 | 21 | 0.0 | 0.0 | 0.00 | 0.25 | 0.25 | 43 | 1006.1 | |
| 20260506010017 | 22 | 0.0 | 0.0 | 0.00 | 0.25 | 0.25 | 42 | 1005.8 | |
| 20260506003017 | 22 | 0.0 | 3.2 | 0.00 | 0.25 | 0.25 | 41 | 1005.3 | |
| 20260506000039 | 23 | 0.0 | 6.4 | 0.00 | 0.25 | 0.25 | 40 | 1005.2 | |
| 20260505233017 | 24 | 0.0 | 4.8 | 0.00 | 0.25 | 0.25 | 41 | 1004.9 | |
| 20260505230037 | 25 | 225 | 1.6 | 9.7 | 0.00 | 0.25 | 0.25 | 39 | 1004.7 |
| 20260505223038 | 25 | 225 | 3.2 | 14.5 | 0.00 | 0.25 | 0.25 | 38 | 1004.7 |
| 20260505220038 | 26 | 225 | 6.4 | 19.3 | 0.00 | 0.25 | 0.25 | 36 | 1004.9 |
| 20260505213016 | 26 | 225 | 4.8 | 20.9 | 0.00 | 0.25 | 0.25 | 36 | 1004.6 |
| 20260505210016 | 26 | 225 | 4.8 | 22.5 | 0.00 | 0.25 | 0.25 | 38 | 1004.7 |
| 20260505203016 | 27 | 225 | 4.8 | 16.1 | 0.00 | 0.25 | 0.25 | 37 | 1004.7 |
| 20260505200017 | 27 | 225 | 4.8 | 19.3 | 0.00 | 0.25 | 0.25 | 37 | 1004.7 |
| 20260505193018 | 27 | 225 | 6.4 | 20.9 | 0.00 | 0.25 | 0.25 | 38 | 1005.1 |
| 20260505190037 | 28 | 225 | 6.4 | 19.3 | 0.00 | 0.25 | 0.25 | 36 | 1005.3 |
| 20260505183038 | 28 | 225 | 4.8 | 16.1 | 0.00 | 0.25 | 0.25 | 37 | 1005.7 |
| 20260505180017 | 28 | 248 | 1.6 | 11.3 | 0.00 | 0.25 | 0.25 | 37 | 1005.9 |
| 20260505173017 | 27 | 225 | 3.2 | 9.7 | 0.00 | 0.25 | 0.25 | 40 | 1006.2 |
| 20260505170018 | 28 | 225 | 3.2 | 14.5 | 0.00 | 0.25 | 0.25 | 37 | 1006.3 |
| 20260505163017 | 27 | 203 | 1.6 | 9.7 | 0.00 | 0.25 | 0.25 | 43 | 1006.7 |
| 20260505153018 | 25 | 0.0 | 6.4 | 0.00 | 0.25 | 0.25 | 45 | 1007.3 | |
| 20260505123017 | 13 | 0.0 | 0.0 | 0.00 | 0.25 | 0.25 | 92 | 1008.4 | |
| 20260505120016 | 12 | 0.0 | 0.0 | 0.00 | 0.25 | 0.25 | 92 | 1007.8 | |
| 20260505113017 | 11 | 0.0 | 0.0 | 0.00 | 0.25 | 0.25 | 91 | 1007.8 | |
| 20260505100018 | 11 | 0.0 | 0.0 | 0.00 | 0.25 | 0.25 | 89 | 1007.2 | |
| 20260505093017 | 11 | 0.0 | 0.0 | 0.00 | 0.25 | 0.25 | 89 | 1007.0 | |
| 20260505090018 | 12 | 0.0 | 0.0 | 0.00 | 0.25 | 0.25 | 88 | 1006.8 | |
| 20260505083017 | 12 | 0.0 | 0.0 | 0.00 | 0.25 | 0.25 | 88 | 1006.9 |